Volver al catálogo

STARLINK-37539

ActivoComunicacionesSSO
NORAD 68845·PAYLOAD·🇺🇸 United States

Lanzado Apr 26, 2026 desde Vandenberg Space Force Base

Loading…

Próximos Pases (próximas 24 horas)

TLE

ActualizadoSource: CelesTrak SupGP

Época: Sep 14, 2026, 23:10 UTC

1 68845C 26094G   26257.96576389  .00052342  00000+0  16248-2 0  2572
2 68845  97.2837 271.1386 0001572  87.8066  54.9976 15.33412314    15

Sigue STARLINK-37539 en tiempo real con AllMySat

Download on the App Store